Location: Navalespino
(40.5894°N, 4.2660°W)
Time: 11:50:51
(UTC+00:00)

Spot 2 Rocket - Pass Details

Date: 18 April 2024
Orbit: 754 x 769 km, 98.4° (Epoch: 27 May)

Event Time Altitude Azimuth Distance (km) Brightness Sun altitude
Exits shadow 22:17:15 42° 283° (WNW) 1,074 4.4 -31.3°
Drops below altitude 10° 22:21:26 10° 334° (NNW) 2,297 6.8 -31.8°
Sets 22:23:51 0° 341° (NNW) 3,225 7.8 -32.0°
